Flag for United Kingdom Weather past 2 weeks in Oxford, England, United Kingdom

Now
61 °F

Partly sunny.


Feels Like: 61 °F
Forecast: 47 / 62 °F
Wind: 13 mph from South

Location: Benson

Current Time: Oct 23, 2014 at 5:51:09 PM

Latest Report: Oct 23, 2014 at 4:50 PM


Visibility: N/A

Pressure: 30.04 "Hg

Humidity: 77%

Dew point: 54 °F

Location of OxfordLocation

Historic Weather in Oxford — Graph

°F

Oxford temperature yesterday

Maximum temperature yesterday: 55 °F (at 1:50 PM)
Minimum temperature yesterday: 45 °F (at 12:50 AM)
Average temperature yesterday: 50 °F

Past Weeks' High & Low Weather Summary

 TemperatureHumidityPressure
High66 °F (Oct 17, 12:50 PM)100% (Oct 11, 12:50 AM)30.30 "Hg (Oct 11, 12:50 AM)
Low37 °F (Oct 12, 1:50 AM)47% (Oct 21, 1:50 PM)29.30 "Hg (Oct 8, 3:50 PM)
Average55 °F85%29.77 "Hg
* Reported Oct 8 3:50 PM — Oct 23 3:50 PM, Oxford, Weather by CustomWeather, © 2014

Note: Actual official high and low records may vary slightly from our data, if they occured in-between our weather recording intervals... More about our weather records

Advertising

Oxford weather history for previous 24 hours

 ConditionsComfort  
Time TempWeatherWind HumidityBarometerVisibility
3:50 PM
Oct 23
61 °FPartly sunny.13 mph77%30.04 "HgN/A
2:50 PM59 °FOvercast.12 mph82%30.07 "HgN/A
1:50 PM61 °FBroken clouds.13 mph72%30.07 "HgN/A
12:50 PM61 °FBroken clouds.16 mph72%30.09 "HgN/A
11:50 AM59 °FScattered clouds.15 mph77%30.09 "HgN/A
10:50 AM57 °FBroken clouds.12 mph77%30.09 "HgN/A
9:50 AM55 °FPartly sunny.10 mph82%30.12 "HgN/A
8:50 AM54 °FPartly sunny.9 mph82%30.12 "HgN/A
7:50 AM54 °FPassing clouds.10 mph77%30.12 "HgN/A
6:50 AM52 °FPassing clouds.8 mph82%30.12 "HgN/A
5:50 AM54 °FPassing clouds.10 mph77%30.12 "HgN/A
4:50 AM54 °FPassing clouds.8 mph77%30.12 "HgN/A
3:50 AM54 °FPassing clouds.12 mph77%30.15 "HgN/A
2:50 AM52 °FOvercast.8 mph82%30.15 "HgN/A
1:50 AM52 °FOvercast.8 mph82%30.18 "HgN/A
12:50 AM50 °FPassing clouds.7 mph88%30.18 "HgN/A
11:50 PM
Oct 22
50 °FPartly cloudy.7 mph88%30.18 "HgN/A
10:50 PM50 °FPassing clouds.8 mph88%30.18 "HgN/A
9:50 PM52 °FPassing clouds.7 mph82%30.21 "HgN/A
8:50 PM52 °FPartly cloudy.6 mph82%30.21 "HgN/A
7:50 PM54 °FPassing clouds.8 mph77%30.21 "HgN/A
6:50 PM54 °FPartly sunny.7 mph77%30.24 "HgN/A
5:50 PM54 °FMore clouds than sun.7 mph72%30.24 "HgN/A
Weather by CustomWeather, © 2014

See weather overviewHow to use our weather pages